CDT,Max TemperatureF,Mean TemperatureF,Min TemperatureF,Max Dew PointF,MeanDew PointF,Min DewpointF,Max Humidity, Mean Humidity, Min Humidity, Max Sea Level PressureIn, Mean Sea Level PressureIn, Min Sea Level PressureIn, Max VisibilityMiles, Mean VisibilityMiles, Min VisibilityMiles, Max Wind SpeedMPH, Mean Wind SpeedMPH, Max Gust SpeedMPH,PrecipitationIn, CloudCover, Events, WindDirDegrees
2013-3-1,54,44,33,31,29,25,85,57,35,30.25,30.20,30.15,10,10,9,16,6,21,0.00,2,,331
2013-3-2,48,40,33,26,21,18,70,49,33,30.36,30.29,30.25,10,10,10,13,7,21,0.00,2,,338
2013-3-3,63,45,27,35,28,23,89,53,29,30.26,30.14,29.99,10,10,10,15,5,18,0.00,0,,154
2013-3-4,75,60,46,57,50,37,86,66,43,29.96,29.80,29.69,10,10,10,24,14,38,0.00,0,,179
2013-3-5,63,54,43,58,35,20,84,50,23,30.32,30.11,29.75,10,10,10,22,11,31,0.00,2,Rain,309
2013-3-6,61,48,35,26,22,18,64,39,19,30.42,30.33,30.26,10,10,10,9,5,,0.00,0,,354
2013-3-7,62,50,37,33,31,27,76,50,28,30.36,30.27,30.21,10,10,10,10,6,,0.00,0,,120
2013-3-8,69,53,37,44,36,32,83,48,26,30.30,30.20,30.09,10,10,10,12,5,20,0.00,1,,135
2013-3-9,66,60,55,59,52,43,88,71,57,30.09,29.96,29.81,10,10,8,18,11,25,0.00,5,Rain,151
2013-3-10,64,55,43,59,50,29,94,83,42,30.03,29.86,29.72,10,8,2,26,10,37,0.79,7,Rain,260
2013-3-11,55,46,36,32,28,25,73,52,35,30.09,30.04,29.98,10,10,10,14,9,23,0.00,0,,314
2013-3-12,64,49,34,39,31,23,96,55,24,30.28,30.18,30.08,10,10,5,8,1,,0.00,0,,332
2013-3-13,64,50,37,39,31,25,83,48,26,30.47,30.39,30.29,10,10,10,9,2,20,0.00,0,,5
2013-3-14,72,56,41,43,36,28,70,46,30,30.43,30.33,30.22,10,10,10,12,4,18,0.00,0,,189
2013-3-15,79,64,51,49,45,42,77,51,32,30.22,30.11,29.98,10,10,8,17,12,25,0.00,0,,211
2013-3-16,78,68,57,56,53,49,94,65,39,29.98,29.91,29.79,10,10,10,18,13,26,0.00,2,,188
2013-3-17,77,68,60,62,59,55,90,75,52,29.87,29.79,29.66,10,10,10,17,11,24,0.00,7,,179
2013-3-18,75,67,55,64,60,47,88,76,55,30.02,29.79,29.72,10,10,8,16,11,24,0.00,6,,248
2013-3-19,69,57,46,46,38,30,86,52,27,30.13,30.05,30.00,10,10,10,12,6,17,0.00,0,,70
2013-3-20,66,57,46,42,31,24,77,42,20,30.28,30.17,30.07,10,10,10,15,5,20,0.00,1,,13
2013-3-21,57,51,45,38,32,27,59,50,45,30.05,29.92,29.74,10,10,10,12,7,21,0.01,5,Rain,100
2013-3-22,63,55,48,55,49,40,94,82,55,29.83,29.76,29.71,10,8,3,12,7,18,0.02,8,Rain,66
2013-3-23,59,52,48,54,50,46,100,94,82,29.86,29.76,29.63,10,6,2,14,5,24,0.36,8,Rain,37
2013-3-24,51,45,37,52,39,28,100,74,44,30.14,29.90,29.66,10,8,1,22,10,33,0.00,5,,307
2013-3-25,54,42,30,28,21,14,76,47,23,30.38,30.26,30.15,10,10,10,18,8,28,0.00,0,,318
2013-3-26,54,42,30,29,22,19,73,49,28,30.49,30.40,30.35,10,10,10,9,4,,0.00,0,,358
2013-3-27,64,48,33,33,29,27,85,51,26,30.42,30.32,30.20,10,10,10,12,4,16,0.00,0,,139
2013-3-28,73,58,46,48,43,34,83,56,36,30.32,30.24,30.18,10,10,10,10,6,,0.00,5,,146
2013-3-29,77,67,59,57,54,46,81,65,50,30.24,30.18,30.12,10,10,7,14,9,17,0.00,5,,199
2013-3-30,71,65,60,63,59,56,96,88,70,30.11,30.04,29.94,10,8,2,15,8,25,0.50,6,Rain,194
2013-3-31,70,61,53,62,58,54,100,89,65,30.02,29.94,29.89,10,7,0,30,9,43,0.66,4,Fog-Rain,176